This is the latest recevied weather packets stored in our database for station/object W3JGB. If no packets are shown the sender has not sent any weather packets the latest 10 day(s).
| Time | Temp. | Humidity | Pressure | Rain* | Wind** | Luminosity | Snow |
|---|---|---|---|---|---|---|---|
| 1778238319 | 2.78° C | 99% | 1012.7 hPa | 0 mm | - | 20 W/m² | - |
| 1778238015 | 2.78° C | 99% | 1013.1 hPa | 0 mm | - | 18 W/m² | - |
| 1778237710 | 2.78° C | 99% | 1013 hPa | 0 mm | - | 23 W/m² | - |
| 1778237408 | 2.22° C | 99% | 1012.7 hPa | 0 mm | - | 23 W/m² | - |
| 1778237106 | 1.67° C | 99% | 1013 hPa | 0 mm | - | 23 W/m² | - |
| 1778236801 | 1.67° C | 99% | 1012.6 hPa | 0 mm | - | 17 W/m² | - |
| 1778236498 | 1.67° C | 99% | 1012.7 hPa | 0 mm | - | 14 W/m² | - |
| 1778236195 | 1.11° C | 99% | 1012.7 hPa | 0 mm | - | 12 W/m² | - |
| 1778235894 | 1.11° C | 99% | 1012.7 hPa | 0 mm | - | 8 W/m² | - |
| 1778235591 | 0.56° C | 99% | 1012.6 hPa | 0 mm | - | 6 W/m² | - |
| 1778235288 | 0.56° C | 99% | 1012.5 hPa | 0 mm | - | 5 W/m² | - |
| 1778234985 | 0.56° C | 99% | 1012.5 hPa | 0 mm | - | 3 W/m² | - |
| 1778234684 | 0.56° C | 99% | 1012.5 hPa | 0 mm | - | 3 W/m² | - |
| 1778234379 | 0.56° C | 99% | 1012.4 hPa | 0 mm | - | 1 W/m² | - |
| 1778234077 | 0.56° C | 99% | 1012.5 hPa | 0 mm | - | 0 W/m² | - |
| 1778233774 | 0.56° C | 99% | 1012.3 hPa | 0 mm | - | 0 W/m² | - |
| 1778233471 | 0.56° C | 99% | 1012.3 hPa | 0 mm | - | 0 W/m² | - |
| 1778233167 | 0.56° C | 99% | 1012.4 hPa | 0 mm | - | 0 W/m² | - |
| 1778232865 | 0.56° C | 99% | 1012.6 hPa | 0 mm | - | 0 W/m² | - |
| 1778232563 | 0.56° C | 99% | 1012.6 hPa | 0 mm | - | 0 W/m² | - |
| 1778232260 | 0.56° C | 99% | 1012.4 hPa | 0 mm | - | 0 W/m² | - |
| 1778231959 | 0.56° C | 99% | 1012.3 hPa | 0 mm | - | 0 W/m² | - |
| 1778231655 | 1.11° C | 99% | 1012.5 hPa | 0 mm | - | 0 W/m² | - |
| 1778231352 | 1.11° C | 99% | 1012.5 hPa | 0 mm | - | 0 W/m² | - |
| 1778231052 | 1.11° C | 99% | 1012.2 hPa | 0 mm | - | 0 W/m² | - |
* Rain latest hour (hover to see other rain measurements)
** Current wind speed in m/s (hover to see current wind gust speed)